STARLINK-1808, 46707

Orbit data source: Space-Track

STARLINK-1808, 46707 is a payload satellite owned by SpaceX/Seattle (US) in LEO that was launched on Sun, 18 Oct 2020 UTC via an FALCON 9 launch vehicle from the Air Force Eastern Test Range (AFETR). Payloads include a variety of satellites, spacecraft, and rockets equipped with specific instruments for various scientific and technological missions. These include communications satellites like Starlink; space stations such as the ISS; scientific satellites like the Hubble; Earth observation satellites from companies like Planet Labs, Umbra, and HawkEye 360; GPS; miniature CubeSats for education and research; and military/defense satellites.

Loading next visibility...
STARLINK-1808 details
Identifier
46707, 2020-073AP
Orbit
LEO
Last TLE update1 day ago
Origin
Flag of USSpaceX/Seattle (US)
ManufacturerSpaceX/Seattle
MissionPartially operational Commercial Communications
Bus & MotorSTARLINK, Unknown motor
Mass260 kg wet, ~248 kg dry
Launch date (UTC)
2020-10-18 (4 years ago)
Launch vehicle
FALCON 9
Launch site
Air Force Eastern Test Range (AFETR)
Object type
Payload
Rocket body
Debris
Shape & HBRBox + 1 Pan, 8.86 m
Radar Cross Section13.562 m², Large (>1 m²)

Expand to show TLE details & history

TLE from 1 day ago
0 STARLINK-1808
1 46707U 20073AP  24360.44604393  .00105450  00000-0  21057-2 0  9996
2 46707  53.0531  22.5349 0007382  31.6430 328.5019 15.45993982231363
Epoch: 2024-12-25T10:42Z
Definitive object data (Epoch: 2024-12-25T10:42:18.195Z)
Latitude-0°
Longitude127.51941°
Altitude425.07 km
Speed7.66 km/s
True Right ascension01h 30m 08s
True Declination0° 00' 00"
Sunlit
Object was in daylight at TLE epoch
Visualization TLE readout
Latitude-41.68957°
Longitude80.86296°
Altitude441.731 km
Speed7.647 km/s
Apparent Right ascension22h 30m 50s
Apparent Declination-40° 39' 50"
Sunlit
Object is in daylight
Visualization observer readout
Local Sidereal Time10:38:28
Azimuth117.8° SE
Elevation-88.363°
Doppler factor1
Orbital elements
Apogee altitude433.759 km
Perigee altitude423.71 km
Semi-major axis6,806.872 km
Eccentricity0.0007382
Inclination53.0531°
RAAN22.5349°
Arg. of periapsis31.643°
True anomaly328.45767°
Mean anomaly328.5019°
Eccentric anomaly328.47979°
Mean motion3.86475 °/min
BSTAR0.0021057
Orbital period93.15 mins
Loading maneuver chart data...
Loading historical data...
Loading historical data...
Loading historical data...
Loading historical data...
Loading historical data...
Loading historical data...
Loading historical data...

STARLINK-1808 Visibility forecast

Observer location: undefined°, undefined

Span
Click to sort rows by Start time (UTC) header in descending order
Start Az.
Max El. time (UTC)
Max El. Az.
Max El.
End time (UTC)
End Az.
4 mins2024-12-26 12:04:09.398Z276.738° WNW2024-12-26 12:06:09.398Z230.555° WSW22.731°2024-12-26 12:08:09.398Z182.416° SSW
4 mins2024-12-27 04:49:09.398Z272.672° WNW2024-12-27 04:51:09.398Z338.241° N29.799°2024-12-27 04:53:09.398Z28.251° NE
4 mins2024-12-27 09:43:09.398Z351.413° N2024-12-27 09:44:09.398Z16.19° NNE21.857°2024-12-27 09:47:09.398Z82.911° E
|